Location: Gro� Glienicke
(52.4675°N, 13.1079°E)
Time: 01:18:22
(UTC+00:00)

USA 267 - Pass Details

Date: 06 July 2020
Orbit: 1102 x 1106 km, 123.0° (Epoch: 09 August)

Event Time Altitude Azimuth Distance (km) Brightness Sun altitude
Exits shadow 22:36:32 20° 173° (S) 2,291 4.3 -14.6°
Maximum altitude 22:40:21 36° 226° (SW) 1,664 3.9 -14.6°
Drops below altitude 10° 22:46:19 10° 292° (WNW) 2,966 5.9 -14.8°
Sets 22:49:03 0° 301° (WNW) 3,927 6.7 -14.8°
